Location: Taukkyan
(23.1052°N, 94.0030°E)
Time: 09:54:59
(UTC+00:00)

Cosmos 1602 Rocket - Pass Details

Date: 06 July 2020
Orbit: 603 x 633 km, 82.5° (Epoch: 14 August)

Event Time Altitude Azimuth Distance (km) Brightness Sun altitude
Exits shadow 14:06:52 10° 196° (SSW) 2,001 6.0 -19.3°
Reaches altitude 10° 14:06:57 10° 196° (SSW) 1,967 5.9 -19.3°
Maximum altitude 14:11:14 59° 276° (W) 714 4.1 -20.1°
Drops below altitude 10° 14:15:36 10° 356° (N) 1,994 6.7 -20.9°
Sets 14:17:52 0° 0° (N) 2,907 7.5 -21.3°
